EDT,Max TemperatureF,Mean TemperatureF,Min TemperatureF,Max Dew PointF,MeanDew PointF,Min DewpointF,Max Humidity, Mean Humidity, Min Humidity, Max Sea Level PressureIn, Mean Sea Level PressureIn, Min Sea Level PressureIn, Max VisibilityMiles, Mean VisibilityMiles, Min VisibilityMiles, Max Wind SpeedMPH, Mean Wind SpeedMPH, Max Gust SpeedMPH,PrecipitationIn, CloudCover, Events, WindDirDegrees
2011-10-1,65,59,52,56,54,48,93,80,67,29.73,29.68,29.61,10,10,5,15,6,20,0.04,8,Rain,351
2011-10-2,60,55,49,50,47,45,89,76,62,29.91,29.79,29.70,10,10,4,14,5,21,0.02,7,Rain,193
2011-10-3,59,54,48,46,45,41,93,73,53,30.06,29.99,29.90,10,10,5,8,3,24,T,7,Rain,210
2011-10-4,68,57,46,50,47,44,93,73,52,30.05,30.03,30.00,10,10,9,17,8,25,0.01,4,Rain,331
2011-10-5,74,64,53,51,47,39,83,59,35,30.27,30.11,30.05,10,10,10,18,8,26,0.00,0,,344
2011-10-6,69,57,44,42,38,30,83,54,24,30.39,30.32,30.27,10,10,10,12,5,17,0.00,0,,326
2011-10-7,70,58,45,45,41,37,77,54,31,30.47,30.42,30.33,10,10,10,8,2,12,0.00,0,,18
2011-10-8,78,62,46,52,48,44,93,66,38,30.51,30.45,30.40,10,10,9,8,3,20,0.00,0,,293
2011-10-9,86,69,51,57,53,48,89,61,32,30.42,30.35,30.29,10,9,6,7,3,20,0.00,0,,323
2011-10-10,83,70,56,61,56,52,84,61,37,30.28,30.21,30.14,10,10,10,9,3,12,0.00,0,,352
2011-10-11,74,67,59,58,54,48,84,64,44,30.19,30.14,30.11,10,10,9,14,6,18,0.00,0,,85
2011-10-12,64,62,59,58,55,52,90,79,67,30.13,30.03,29.88,10,9,4,21,10,26,0.11,8,Rain,88
2011-10-13,69,65,60,66,61,57,97,91,84,29.87,29.75,29.61,7,4,1,14,8,17,0.14,8,Rain,95
2011-10-14,75,66,57,68,62,45,93,78,62,29.63,29.50,29.37,10,8,1,23,9,31,0.16,6,Rain-Thunderstorm,210
2011-10-15,68,61,53,44,40,35,71,52,32,29.80,29.67,29.60,10,10,10,22,10,32,0.00,2,,264
2011-10-16,69,61,52,47,39,34,56,44,32,29.93,29.82,29.66,10,10,10,17,9,26,0.00,3,,246
2011-10-17,68,59,49,49,40,33,71,49,27,29.81,29.75,29.63,10,10,10,17,7,24,T,2,Rain,279
2011-10-18,72,59,46,52,44,35,93,62,31,29.89,29.84,29.79,10,9,6,8,2,12,0.00,2,,120
2011-10-19,69,65,60,61,58,53,87,83,78,29.81,29.77,29.74,10,7,2,24,6,33,0.80,8,Rain,104
2011-10-20,72,62,52,,,,,,,,,,,,,28,,37,0.01,,,
2011-10-21,58,53,47,41,40,38,77,64,51,30.03,29.97,29.93,10,10,10,17,7,23,0.00,6,,290
2011-10-22,59,51,42,42,41,39,89,70,51,30.10,30.07,30.05,10,10,9,13,5,17,0.00,5,,309
2011-10-23,63,53,42,42,40,38,89,67,44,30.15,30.11,30.08,10,10,7,10,2,15,0.00,2,,311
2011-10-24,64,53,42,,,,,,,,,,,,,12,3,15,T,,,
2011-10-25,64,56,48,,,,,,,,,,,,,20,7,28,0.00,,,
2011-10-26,66,55,44,,,,,,,,,,,,,12,,14,0.00,,,
2011-10-27,61,51,40,,,,,,,,,,,,,17,6,23,0.36,,,
2011-10-28,53,45,36,,,,,,,,,,,,,9,,13,T,,,
2011-10-29,45,40,34,,,,,,,,,,,,,22,12,31,1.38,,,
2011-10-30,49,41,33,,,,,,,,,,,,,17,6,26,0.00,,,
2011-10-31,54,41,28,,,,,,,,,,,,,10,2,13,0.00,,,